Tracking 28790 objects as of 19-Apr-2024
HD Live streaming from Space Station
objects crossing your sky now

GONETS M 03

Track GONETS M 03 now!
10-day predictions
GONETS M 03 is classified as:


NORAD ID: 38734
Int'l Code: 2012-041B
Perigee: 1,480.9 km
Apogee: 1,505.6 km
Inclination: 82.5 °
Period: 115.7 minutes
Semi major axis: 7864 km
RCS: 1.8381 m2 (large)
Launch date: July 28, 2012
Source: Commonwealth of Independent States (former USSR) (CIS)
Launch site: PLESETSK MISSILE AND SPACE COMPLEX (PKMTR)

Gonets-M1 is a telecoms satellites.
Your satellite tracking list
Your tracking list is empty




NASA's NSSDC Master Catalog

Two Line Element Set (TLE):
1 38734U 12041B   24110.17717702  .00000020  00000-0  70181-4 0  9996
2 38734  82.4784 198.9638 0015697 352.9488   7.1370 12.44859225532551
Source of the keplerian elements: AFSPC